This is the latest recevied weather packets stored in our database for station/object KF7SOJ. If no packets are shown the sender has not sent any weather packets the latest 10 day(s).
| Time | Temp. | Humidity | Pressure | Rain* | Wind** | Luminosity | Snow |
|---|---|---|---|---|---|---|---|
| 1777988589 | 5.56° C | 53% | 933.8 hPa | 0 mm | - | 246 W/m² | - |
| 1777988286 | 5.56° C | 54% | 933.7 hPa | 0 mm | - | 187 W/m² | - |
| 1777987982 | 5° C | 57% | 933.7 hPa | 0 mm | - | 236 W/m² | - |
| 1777987678 | 4.44° C | 58% | 933.7 hPa | 0 mm | - | 190 W/m² | - |
| 1777987375 | 4.44° C | 58% | 933.8 hPa | 0 mm | - | 146 W/m² | - |
| 1777987073 | 4.44° C | 58% | 933.7 hPa | 0 mm | - | 82 W/m² | - |
| 1777986770 | 5° C | 57% | 933.7 hPa | 0 mm | - | 94 W/m² | - |
| 1777986467 | 4.44° C | 56% | 933.7 hPa | 0 mm | - | 118 W/m² | - |
| 1777986166 | 4.44° C | 58% | 933.7 hPa | 0 mm | - | 87 W/m² | - |
| 1777985863 | 3.89° C | 60% | 933.6 hPa | 0 mm | - | 97 W/m² | - |
| 1777985560 | 3.33° C | 61% | 933.5 hPa | 0 mm | - | 87 W/m² | - |
| 1777985257 | 2.78° C | 62% | 933.3 hPa | 0 mm | - | 67 W/m² | - |
| 1777984953 | 3.33° C | 62% | 933.3 hPa | 0 mm | - | 57 W/m² | - |
| 1777984649 | 2.78° C | 61% | 933.3 hPa | 0 mm | - | 46 W/m² | - |
| 1777984346 | 2.78° C | 62% | 933.4 hPa | 0 mm | - | 40 W/m² | - |
| 1777984042 | 2.78° C | 62% | 933.2 hPa | 0 mm | - | 29 W/m² | - |
| 1777983740 | 2.78° C | 63% | 933.3 hPa | 0 mm | - | 25 W/m² | - |
| 1777983436 | 2.78° C | 63% | 933.2 hPa | 0 mm | - | 20 W/m² | - |
| 1777983133 | 2.22° C | 64% | 933.2 hPa | 0 mm | - | 14 W/m² | - |
| 1777982829 | 2.22° C | 64% | 933.2 hPa | 0 mm | - | 9 W/m² | - |
| 1777982526 | 2.22° C | 65% | 933 hPa | 0 mm | - | 6 W/m² | - |
| 1777982224 | 1.67° C | 66% | 933.3 hPa | 0 mm | - | 3 W/m² | - |
| 1777981923 | 1.67° C | 66% | 933.3 hPa | 0 mm | - | 2 W/m² | - |
| 1777981620 | 1.67° C | 66% | 933.2 hPa | 0 mm | - | 1 W/m² | - |
| 1777981316 | 1.67° C | 67% | 933.2 hPa | 0 mm | - | 0 W/m² | - |
* Rain latest hour (hover to see other rain measurements)
** Current wind speed in m/s (hover to see current wind gust speed)